"Pseudo-MPEC" for C1JH4M2

Created 2019 Dec 6 22:33:14 UT using Find_Orb

Click here for an explanation of pseudo-MPECs

TLEs (Two-Line Elements) are available for this object, and for some of the other artsats on these pages.

The area/mass ratio is nominally -2.2 +/- 2.9 m2/kg (note that's a negative 2.2.) It's presumably very small (H=34.3), so I expect it's getting pushed around a bit by sunlight. But it looks as if it's not an ETBO.

 
 Astrometry: 
     C1JH4M2* C2019 12 06.20934 04 42 59.19 +18 51 07.9    ~C6Dg       VNEOCPG96
     C1JH4M2  C2019 12 06.21411 04 43 20.64 +18 51 48.1    ~C6Dg 19.8 GVNEOCPG96
     C1JH4M2  C2019 12 06.22369 04 44 03.12 +18 53 01.4    ~C6Dg       VNEOCPG96
     C1JH4M2  C2019 12 06.25344 04 46 10.56 +18 55 41.0    ~C6Dg 18.6 GVNEOCPI52
     C1JH4M2  C2019 12 06.25422 04 46 13.75 +18 55 43.8    ~C6Dg 19.4 GVNEOCPI52
     C1JH4M2  C2019 12 06.25500 04 46 17.08 +18 55 46.3    ~C6Dg 18.2 GVNEOCPI52
     C1JH4M2  C2019 12 06.35628 04 53 20.84 +18 50 33.7    ~C6Dg 18.9 GVNEOCPG96
     C1JH4M2  C2019 12 06.35646 04 53 21.62 +18 50 32.0    ~C6Dg 18.9 GVNEOCPG96
     C1JH4M2  C2019 12 06.35663 04 53 22.39 +18 50 30.4    ~C6Dg 19.1 GVNEOCPG96
     C1JH4M2  C2019 12 06.46105 05 02 29.37 +18 22 14.2    ~C6Dg 19.0 GVNEOCPG96
     C1JH4M2  C2019 12 06.46129 05 02 30.84 +18 22 08.9    ~C6Dg 19.0 GVNEOCPG96
     C1JH4M2  C2019 12 06.46152 05 02 32.31 +18 22 03.9    ~C6Dg 19.0 GVNEOCPG96
     C1JH4M2  C2019 12 06.46175 05 02 33.71 +18 21 58.6    ~C6Dg 19.0 GVNEOCPG96
     C1JH4M2  CK191206:21115086 102.65009   +13.83394            18.1 GV     J95
     C1JH4M2  CK191206:21164108 102.93443   +13.77432            18.6 GV     J95
     C1JH4M2  CK191206:21213181 103.22234   +13.71279            18.6 GV     J95
     C1JH4M2  CK191206:21301761 103.75111   +13.59777            18.3 GV     J95

Station data:
(G96) Mt. Lemmon Survey  (N32.442754 W110.788720)  US/Arizona.  Observers T.
   A. Pruyne, B. M. Africano, E. J. Christensen, G. A. Farneth, D. C. Fuls,
   A. R. Gibbs, A. D. Grauer, H. Gröller, J. A. Johnson, R. A. Kowalski, S.
   M. Larson, G. J. Leonard, D. Rankin, R. L. Seaman, F. C. Shelly. 1.5-m
   reflector + 10K CCD.
(I52) Steward Observatory, Mt. Lemmon Station  (N32.442547 W110.788920)
   US/Arizona.  Observers T. A. Pruyne, B. M. Africano, E. J. Christensen, G.
   A. Farneth, D. C. Fuls, A. R. Gibbs, A. D. Grauer, H. Gröller, J. A.
   Johnson, R. A. Kowalski, S. M. Larson, G. J. Leonard, D. Rankin, R. L.
   Seaman, F. C. Shelly. 1.0-m reflector + CCD.
(J95) Great Shefford  (N51.474969 W1.447003)  UK.  Observer P. Birtwhistle.

Orbital elements:  C1JH4M2
   Perigee 2019 Dec 7.187687 +/- 0.000105 TT =  4:30:16 (JD 2458824.687687)
Epoch 2019 Dec  7.0 TT = JDT 2458824.5                        Gray
M 328.7709252491 +/- 0.0036         (J2000 equator)
n 166.3893406370 +/- 0.102          Peri.  266.6369889 +/- 0.015
a 70662.094410 +/- 29               Node   339.6830554 +/- 0.0007
e   0.812087298 +/- 7.95e-5         Incl.   19.6278233 +/- 0.0008
P3115.53m/2.164d           H 34.3   G  0.15   U 11.2
q 13278.305062 +/- 11    Q 128045.88375 +/- 47
From 17 observations 2019 Dec. 6 (16.5 hr); mean residual 0".400
Residuals in arcseconds: 
191206 G96 .134- .458+    191206 G96 .126- .076+    191206 G96 .427- .047+
191206 G96 .759- .437+    191206 G96 .411- .132+    191206 J95 .523- .423+
191206 G96 1.00- .475+    191206 G96 .211- .195+    191206 J95 .084- .269+
191206 I52 .760+ .296-    191206 G96 .344+ .080+    191206 J95 .240+ .534-
191206 I52 .285- .279-    191206 G96 .158- .112+    191206 J95 .256+ .073+
191206 I52 .697+ .488-    191206 G96 .215+ .227+

Ephemerides (geocentric):
Date (UTC) HH   RA              Dec         delta   r     elong  mag " sig PA
---- --------  --------------  -----------  -----  ------ -----  --- --------
2019 12 06 23  07 08 25.131   +15 48 46.72   64990 .98561 147.1 18.8 2.54 160
2019 12 07 00  07 30 24.590   +14 38 09.41   57070 .98554 141.7 18.7 2.90  50
2019 12 07 01  07 59 37.603   +12 51 08.41   48228 .98546 134.5 18.5 10.5  91
2019 12 07 02  08 42 20.037   +09 50 19.12   38273 .98537 123.6 18.3 35.1 103
2019 12 07 03  09 56 30.261   +03 44 14.43   27051 .98526 104.3 18.2  126 108
2019 12 07 04  13 01 04.973   -11 43 33.29   15742 .98515  56.0 19??  617 106
2019 12 07 05  19 59 17.551   -12 52 00.93   16015 .98513  45.3 20??  952  75
2019 12 07 06  22 58 41.427   +01 47 15.78   27402 .98521  92.0 18.7  476  71
2019 12 07 07  00 10 48.930   +07 56 58.82   38590 .98529 110.9 18.7  321  72
2019 12 07 08  00 52 26.706   +11 07 26.02   48511 .98536 121.6 18.9  254  74
2019 12 07 09  01 20 59.334   +13 03 53.28   57323 .98542 128.8 19.1  218  76
2019 12 07 10  01 42 30.962   +14 22 57.31   65219 .98548 134.1 19.2  196  77
2019 12 07 11  01 59 45.319   +15 20 25.82   72346 .98553 138.4 19.3  180  78
2019 12 07 12  02 14 08.492   +16 04 14.17   78811 .98558 141.8 19.4  169  79
2019 12 07 13  02 26 30.795   +16 38 47.62   84698 .98562 144.8 19.5  161  80
2019 12 07 14  02 37 23.964   +17 06 46.18   90067 .98566 147.4 19.5  154  81
2019 12 07 15  02 47 09.213   +17 29 52.40   94970 .98570 149.7 19.6  149  81
2019 12 07 16  02 56 01.381   +17 49 15.09   99444 .98573 151.8 19.6  145  82
2019 12 07 17  03 04 11.242   +18 05 42.25  103523 .98576 153.7 19.7  142  82
2019 12 07 18  03 11 46.864   +18 19 48.38  107231 .98578 155.5 19.7  139  83
2019 12 07 19  03 18 54.451   +18 31 58.92  110590 .98581 157.1 19.7  137  84
2019 12 07 20  03 25 38.888   +18 42 33.01  113619 .98583 158.6 19.7  135  84
2019 12 07 21  03 32 04.101   +18 51 45.31  116333 .98584 160.1 19.7  134  85
2019 12 07 22  03 38 13.310   +18 59 47.21  118743 .98586 161.5 19.7  133  85
2019 12 07 23  03 44 09.203   +19 06 47.63  120862 .98587 162.9 19.7  132  85
2019 12 08 00  03 49 54.063   +19 12 53.61  122697 .98588 164.2 19.7  131  86
2019 12 08 01  03 55 29.867   +19 18 10.75  124257 .98589 165.4 19.7  131  86
2019 12 08 02  04 00 58.356   +19 22 43.44  125547 .98590 166.6 19.7  131  87
2019 12 08 03  04 06 21.090   +19 26 35.15  126572 .98590 167.8 19.6  132  87
2019 12 08 04  04 11 39.497   +19 29 48.55  127336 .98591 169.0 19.6  132  88
2019 12 08 05  04 16 54.905   +19 32 25.62  127842 .98591 170.1 19.6  133  88
2019 12 08 06  04 22 08.577   +19 34 27.75  128091 .98591 171.2 19.5  134  88
2019 12 08 07  04 27 21.741   +19 35 55.74  128084 .98590 172.3 19.5  136  89
2019 12 08 08  04 32 35.611   +19 36 49.91  127822 .98590 173.4 19.4  137  89
2019 12 08 09  04 37 51.418   +19 37 10.02  127303 .98589 174.4 19.4  140  90
2019 12 08 10  04 43 10.433   +19 36 55.32  126525 .98588 175.4 19.3  142  90
2019 12 08 11  04 48 33.997   +19 36 04.47  125486 .98587 176.2 19.2  145  91
2019 12 08 12  04 54 03.553   +19 34 35.48  124182 .98586 176.7 19.2  149  91
2019 12 08 13  04 59 40.685   +19 32 25.63  122607 .98584 176.8 19.3  153  91
2019 12 08 14  05 05 27.162   +19 29 31.31  120756 .98582 176.4 19.1  158  92
2019 12 08 15  05 11 24.999   +19 25 47.83  118622 .98580 175.6 19.1  164  92
2019 12 08 16  05 17 36.528   +19 21 09.16  116194 .98578 174.5 19.2  171  93
2019 12 08 17  05 24 04.498   +19 15 27.52  113463 .98575 173.3 19.2  179  93
2019 12 08 18  05 30 52.208   +19 08 32.85  110415 .98572 171.9 19.2  189  94
2019 12 08 19  05 38 03.689   +19 00 12.06  107035 .98569 170.3 19.2  201  95
2019 12 08 20  05 45 43.963   +18 50 07.84  103305 .98566 168.6 19.2  215  95
2019 12 08 21  05 53 59.419   +18 37 56.96   99203 .98562 166.7 19.1  232  96
2019 12 08 22  06 02 58.381   +18 23 07.60   94702 .98558 164.7 19.1  255  97
2019 12 08 23  06 12 51.985   +18 04 55.04   89771 .98554 162.4 19.1  283  97
2019 12 09 00  06 23 55.599   +17 42 14.40   84368 .98549 159.8 19.0  320  98
2019 12 09 01  06 36 31.245   +17 13 27.93   78445 .98544 156.9 19.0  370  99
2019 12 09 02  06 51 11.960   +16 36 01.05   71938 .98538 153.4 18.9  441 100
2019 12 09 03  07 08 50.293   +15 45 33.64   64762 .98531 149.1 18.8  546 102
2019 12 09 04  07 30 56.546   +14 34 11.06   56806 .98524 143.7 18.6  714 103
2019 12 09 05  08 00 23.456   +12 45 45.21   47920 .98516 136.4 18.5 1012 105
2019 12 09 06  08 43 38.513   +09 41 41.11   37908 .98507 125.5 18.3 1642 107
2019 12 09 07  09 59 29.190   +03 25 39.13   26617 .98497 105.7 18.1 3408 109
2019 12 09 08  13 12 23.151   -12 31 39.68   15361 .98486  55.3 19?? 176' 105
2019 12 09 09  20 12 21.585   -11 57 08.46   16329 .98483  46.4 20?? 9308  74
2019 12 09 10  23 03 53.685   +02 17 48.51   27853 .98491  91.2 18.7 3361  71
2019 12 09 11  00 13 58.912   +08 14 41.43   39017 .98499 109.6 18.8 1799  72
2019 12 09 12  00 54 47.287   +11 19 35.42   48903 .98506 120.0 19.0 1198  74
2019 12 09 13  01 22 53.775   +13 13 03.88   57683 .98512 127.1 19.1  898  75
2019 12 09 14  01 44 09.257   +14 30 16.84   65552 .98518 132.4 19.3  722  77
2019 12 09 15  02 01 12.609   +15 26 29.26   72654 .98523 136.5 19.4  609  78
2019 12 09 16  02 15 27.760   +16 09 21.81   79098 .98528 140.0 19.5  532  79
2019 12 09 17  02 27 43.924   +16 43 12.22   84965 .98532 142.9 19.5  475  80
2019 12 09 18  02 38 32.220   +17 10 36.34   90318 .98536 145.5 19.6  432  80
2019 12 09 19  02 48 13.490   +17 33 14.14   95204 .98539 147.8 19.6  400  81
2019 12 09 20  02 57 02.334   +17 52 12.84   99663 .98543 149.8 19.7  374  82